Location: Drocourt
(49.0571°N, 1.7669°E)
Time: 08:28:41
(UTC+00:00)

Cosmos 1602 Rocket - Pass Details

Date: 09 February 2023
Orbit: 603 x 630 km, 82.5° (Epoch: 24 March)

Event Time Altitude Azimuth Distance (km) Brightness Sun altitude
Rises 18:47:57 0° 183° (S) 2,846 7.0 -17.6°
Reaches altitude 10° 18:50:09 10° 181° (S) 1,946 6.1 -18.0°
Maximum altitude 18:54:26 73° 98° (E) 637 3.4 -18.7°
Drops below altitude 10° 18:58:46 10° 13° (NNE) 1,965 6.0 -19.4°
Sets 19:01:00 0° 12° (NNE) 2,875 6.9 -19.7°
